GW0392 Weather Reports


Display with metric or nautical units.
time (UTC)temp
F
wind
direction
speed
MPH
gust
MPH
rain 1hr
in
rain 24hr
in
rain mn
in
humidity
%
barometer
mb
20260831101546 70 226 0.0 0.0 0.00 0.00 0.00 99 1020.4
20260831101043 70 222 0.0 0.0 0.00 0.00 0.00 99 1020.4
20260831100538 70 221 0.0 0.0 0.00 0.00 0.00 99 1020.4
20260831100034 70 224 0.0 0.0 0.00 0.00 0.00 99 1020.1
20260831095532 70 225 0.0 0.0 0.00 0.00 0.00 99 1020.2
20260831095032 70 224 0.0 0.0 0.00 0.00 0.00 99 1020.0
20260831094529 70 224 0.0 0.0 0.00 0.00 0.00 99 1020.1
20260831094024 70 224 0.0 0.0 0.00 0.00 0.00 99 1019.9
20260831093519 70 224 0.0 0.0 0.00 0.00 0.00 99 1020.0
20260831093016 70 224 0.0 0.0 0.00 0.00 0.00 99 1020.2
20260831092511 70 224 0.0 0.0 0.00 0.00 0.00 99 1019.8
20260831092007 71 224 0.0 0.0 0.00 0.00 0.00 99 1019.9
20260831091501 71 224 0.0 0.0 0.00 0.00 0.00 99 1019.7
20260831090956 71 224 0.0 0.0 0.00 0.00 0.00 99 1019.8
20260831090452 71 224 0.0 0.0 0.00 0.00 0.00 99 1019.8
20260831085948 71 224 0.0 0.0 0.00 0.00 0.00 99 1019.9
20260831085443 71 224 0.0 0.0 0.00 0.00 0.00 99 1020.0
20260831084942 71 225 0.0 0.0 0.00 0.00 0.00 99 1019.7
20260831084439 71 225 0.0 0.0 0.00 0.00 0.00 99 1019.9
20260831083936 71 220 0.0 0.0 0.00 0.00 0.00 99 1020.0
20260831083430 71 220 0.0 0.0 0.00 0.00 0.00 99 1019.4
20260831082929 71 221 0.0 0.0 0.00 0.00 0.00 99 1019.7
20260831082423 71 221 0.0 0.0 0.00 0.00 0.00 99 1019.7
20260831081919 71 221 0.0 0.0 0.00 0.00 0.00 99 1019.5
20260831081415 71 221 0.0 0.0 0.00 0.00 0.00 99 1019.8
20260831080910 71 221 0.0 0.0 0.00 0.00 0.00 99 1019.9
20260831080406 71 221 0.0 0.0 0.00 0.00 0.00 99 1019.8
20260831075901 71 221 0.0 0.0 0.00 0.00 0.00 99 1019.6
20260831075356 71 220 0.0 0.0 0.00 0.00 0.00 99 1019.8
20260831074851 71 225 0.0 0.0 0.00 0.00 0.00 99 1019.6
20260831074350 71 225 0.0 0.0 0.00 0.00 0.00 99 1019.7
20260831073846 71 224 0.0 0.0 0.00 0.00 0.00 99 1019.6
20260831073344 71 220 0.0 0.0 0.00 0.00 0.00 99 1019.8
20260831072840 71 224 0.0 0.0 0.00 0.00 0.00 99 1019.7
20260831072335 72 224 0.0 0.0 0.00 0.00 0.00 99 1019.8
20260831071832 72 223 0.0 0.0 0.00 0.00 0.00 99 1019.6
20260831071330 72 222 0.0 0.0 0.00 0.00 0.00 99 1019.8
20260831070826 72 223 0.0 0.0 0.00 0.00 0.00 99 1019.8
20260831070324 72 224 0.0 0.0 0.00 0.00 0.00 99 1019.9
20260831065824 72 221 0.0 0.0 0.00 0.00 0.00 99 1019.9
20260831065322 72 222 0.0 0.0 0.00 0.00 0.00 99 1019.8
20260831064817 72 221 0.0 0.0 0.00 0.00 0.00 98 1019.7
20260831064312 72 224 0.0 0.0 0.00 0.00 0.00 98 1019.7
20260831063809 72 221 0.0 0.0 0.00 0.00 0.00 98 1019.9
20260831063303 72 221 0.0 0.0 0.00 0.00 0.00 98 1019.8
20260831062803 72 224 0.0 0.0 0.00 0.00 0.00 98 1020.0
20260831062258 72 224 0.0 0.0 0.00 0.00 0.00 98 1020.0
20260831061756 72 226 0.0 0.0 0.00 0.00 0.00 98 1019.9
20260831061251 72 224 0.0 0.0 0.00 0.00 0.00 98 1019.9
20260831060748 73 224 0.0 0.0 0.00 0.00 0.00 98 1019.8
20260831060247 73 223 0.0 0.0 0.00 0.00 0.00 98 1019.9
20260831055747 73 222 0.0 0.0 0.00 0.00 0.00 98 1019.8
20260831055242 73 222 0.0 0.0 0.00 0.00 0.00 97 1020.0
20260831054737 73 224 0.0 0.0 0.00 0.00 0.00 97 1020.0
20260831054232 73 224 0.0 0.0 0.00 0.00 0.00 97 1020.0
20260831053731 73 224 0.0 0.0 0.00 0.00 0.00 97 1020.0
20260831053230 73 224 0.0 0.0 0.00 0.00 0.00 97 1019.9
20260831052729 73 224 0.0 0.0 0.00 0.00 0.00 97 1020.0
20260831052223 73 224 0.0 0.0 0.00 0.00 0.00 97 1020.1
20260831051721 73 222 0.0 0.0 0.00 0.00 0.00 97 1019.9
20260831051220 73 227 0.0 0.0 0.00 0.00 0.00 97 1019.9
20260831050715 73 221 0.0 0.0 0.00 0.00 0.00 97 1020.0
20260831050214 73 225 0.0 0.0 0.00 0.00 0.00 96 1019.9
20260831045708 73 224 0.0 0.0 0.00 0.00 0.00 96 1019.9
20260831045203 73 224 0.0 0.0 0.00 0.00 0.00 96 1019.9
20260831044658 73 224 0.0 0.0 0.00 0.00 0.00 96 1019.8
20260831044153 73 224 0.0 0.0 0.00 0.00 0.00 96 1020.0
20260831043649 73 224 0.0 0.0 0.00 0.00 0.00 96 1020.0
20260831043144 73 224 0.0 0.0 0.00 0.00 0.00 96 1019.9
20260831042643 73 222 0.0 0.0 0.00 0.00 0.00 96 1019.8
20260831042138 73 223 0.0 0.0 0.00 0.00 0.00 95 1020.0
20260831041633 74 224 0.0 0.0 0.00 0.00 0.00 95 1019.9
20260831041132 74 223 0.0 0.0 0.00 0.00 0.00 95 1019.8
20260831040627 74 224 0.0 0.0 0.00 0.00 0.00 95 1020.0
20260831040121 74 224 0.0 0.0 0.00 0.00 0.00 95 1019.9
20260831035619 74 222 0.0 0.0 0.00 0.00 0.00 95 1020.0
20260831035114 74 222 0.0 0.0 0.00 0.00 0.00 95 1019.8
20260831034613 74 222 0.0 0.0 0.00 0.00 0.00 94 1019.9
20260831034109 74 222 0.0 0.0 0.00 0.00 0.00 94 1020.1
20260831033604 74 222 0.0 0.0 0.00 0.00 0.00 94 1020.1
20260831033059 74 222 0.0 0.0 0.00 0.00 0.00 94 1019.8
20260831032559 74 225 0.0 0.0 0.00 0.00 0.00 94 1020.0
20260831032054 74 225 0.0 0.0 0.00 0.00 0.00 94 1019.7
20260831031554 74 225 0.0 0.0 0.00 0.00 0.00 94 1020.0
20260831031053 75 225 0.0 0.0 0.00 0.00 0.00 94 1020.1
20260831030553 75 225 0.0 0.0 0.00 0.00 0.00 93 1019.8
20260831030052 75 225 0.0 0.0 0.00 0.00 0.00 93 1019.9
20260831025550 75 225 0.0 0.0 0.00 0.00 0.00 93 1019.9
20260831025046 75 225 0.0 0.0 0.00 0.00 0.00 93 1020.0
20260831024542 75 225 0.0 0.0 0.00 0.00 0.00 93 1020.0
20260831024040 75 225 0.0 0.0 0.00 0.00 0.00 93 1020.0
20260831023539 75 225 0.0 0.0 0.00 0.00 0.00 92 1019.8
20260831023033 75 225 0.0 0.0 0.00 0.00 0.00 91 1019.7
20260831022533 75 225 0.0 0.0 0.00 0.00 0.00 91 1019.9
20260831022028 75 225 0.0 0.0 0.00 0.00 0.00 90 1019.7
20260831021527 75 225 0.0 0.0 0.00 0.00 0.00 90 1019.7
20260831021023 76 225 0.0 0.0 0.00 0.00 0.00 90 1019.8
20260831020518 76 225 0.0 0.0 0.00 0.00 0.00 89 1019.7
20260831020013 76 225 0.0 0.0 0.00 0.00 0.00 88 1019.6
20260831015509 76 225 0.0 0.0 0.00 0.00 0.00 88 1019.5
20260831015004 76 225 0.0 0.0 0.00 0.00 0.00 88 1019.5
20260831014458 76 225 0.0 0.0 0.00 0.00 0.00 89 1019.4
20260831013954 77 225 0.0 0.0 0.00 0.00 0.00 89 1019.5
20260831013450 77 225 0.0 0.0 0.00 0.00 0.00 89 1019.2
20260831012949 77 225 0.0 0.0 0.00 0.00 0.00 89 1019.2
20260831012444 77 225 0.0 0.0 0.00 0.00 0.00 89 1019.1
20260831011938 77 225 0.0 0.0 0.00 0.00 0.00 88 1019.1
20260831011433 77 225 0.0 0.0 0.00 0.00 0.00 87 1019.0
20260831010929 77 225 0.0 0.0 0.00 0.00 0.00 87 1019.2
20260831010424 78 224 0.0 0.0 0.00 0.00 0.00 87 1019.2
20260831005919 78 224 0.0 0.0 0.00 0.00 0.00 87 1019.1
20260831005415 78 224 0.0 0.0 0.00 0.00 0.00 86 1018.8
20260831004909 78 224 0.0 0.0 0.00 0.00 0.00 85 1018.8
20260831004406 79 224 0.0 0.0 0.00 0.00 0.00 85 1018.8
20260831003901 79 224 0.0 0.0 0.00 0.00 0.00 84 1018.5
20260831003357 79 224 0.0 0.0 0.00 0.00 0.00 84 1018.7
20260831002856 80 224 0.0 0.0 0.00 0.00 0.00 83 1018.7
20260831002355 80 224 0.0 0.0 0.00 0.00 0.00 82 1018.6
20260831001851 80 225 0.0 0.0 0.00 0.00 0.00 81 1018.6
20260831001351 81 227 0.0 0.0 0.00 0.00 0.00 80 1018.5
20260831000849 81 227 0.0 0.0 0.00 0.00 0.00 79 1018.4
20260831000344 82 228 0.0 0.0 0.00 0.00 0.00 79 1018.4
20260830235842 82 224 0.0 0.0 0.00 0.00 0.00 79 1018.6
20260830235337 83 224 0.0 0.0 0.00 0.00 0.00 77 1018.4
20260830234833 83 224 0.0 0.0 0.00 0.00 0.00 76 1018.7
20260830234328 84 224 0.0 0.0 0.00 0.00 0.00 74 1018.4
20260830233824 85 224 0.0 0.0 0.00 0.00 0.00 72 1018.5
20260830233319 85 224 0.0 0.0 0.00 0.00 0.00 71 1018.5
20260830232815 86 224 0.0 0.0 0.00 0.00 0.00 69 1018.6
20260830232310 86 224 0.0 0.0 0.00 0.00 0.00 68 1018.4
20260830231807 86 224 0.0 0.0 0.00 0.00 0.00 67 1018.3
20260830231307 87 219 0.0 0.0 0.00 0.00 0.00 68 1018.4
20260830230801 87 220 0.0 0.0 0.00 0.00 0.00 67 1018.3
20260830230257 87 218 0.0 0.0 0.00 0.00 0.00 66 1018.5
20260830225756 88 220 0.0 0.0 0.00 0.00 0.00 66 1018.5
20260830225251 88 220 0.0 0.0 0.00 0.00 0.00 65 1018.4
20260830224750 88 221 0.0 0.0 0.00 0.00 0.00 58 1018.4
20260830224245 89 219 0.0 0.0 0.00 0.00 0.00 64 1018.1
20260830223742 89 220 0.0 0.0 0.00 0.00 0.00 63 1018.1
20260830223238 89 220 0.0 0.0 0.00 0.00 0.00 61 1018.1
20260830222732 90 220 0.0 1.0 0.00 0.00 0.00 63 1018.4
20260830222227 90 216 0.0 0.0 0.00 0.00 0.00 58 1018.4
20260830221717 90 221 0.0 1.0 0.00 0.00 0.00 56 1018.2
20260830221214 90 218 1.0 2.0 0.00 0.00 0.00 57 1018.2
20260830220709 89 219 0.0 2.0 0.00 0.00 0.00 59 1018.4
20260830220208 89 220 0.0 1.0 0.00 0.00 0.00 59 1018.4
20260830215707 89 216 0.0 0.0 0.00 0.00 0.00 58 1018.5
20260830215201 89 220 0.0 1.0 0.00 0.00 0.00 58 1018.4
20260830214657 89 224 0.0 1.0 0.00 0.00 0.00 58 1018.4
20260830214151 89 225 0.0 1.0 0.00 0.00 0.00 60 1018.4
20260830213650 89 220 0.0 0.0 0.00 0.00 0.00 60 1018.5
20260830213146 89 218 0.0 0.0 0.00 0.00 0.00 63 1018.6
20260830212642 89 196 1.0 2.0 0.00 0.00 0.00 59 1018.6
20260830212136 91 197 1.0 1.0 0.00 0.00 0.00 58 1018.5
20260830211632 90 217 0.0 2.0 0.00 0.00 0.00 58 1018.7
20260830211131 90 218 1.0 1.0 0.00 0.00 0.00 57 1018.4
20260830210627 90 218 1.0 1.0 0.00 0.00 0.00 58 1018.6
20260830210126 90 219 0.0 1.0 0.00 0.00 0.00 59 1018.7
20260830205623 90 251 0.0 0.0 0.00 0.00 0.00 58 1018.5
20260830205119 89 219 0.0 1.0 0.00 0.00 0.00 58 1018.5
20260830204618 90 218 0.0 1.0 0.00 0.00 0.00 58 1018.6
20260830204117 90 211 1.0 2.0 0.00 0.00 0.00 59 1018.7
20260830203614 90 219 0.0 1.0 0.00 0.00 0.00 58 1018.7
20260830203113 91 225 0.0 1.0 0.00 0.00 0.00 57 1018.8
20260830202613 90 220 0.0 3.0 0.00 0.00 0.00 57 1018.9
20260830202109 90 218 1.0 1.0 0.00 0.00 0.00 56 1019.1
20260830201608 91 205 1.0 3.0 0.00 0.00 0.00 57 1019.1
20260830201103 91 220 0.0 1.0 0.00 0.00 0.00 57 1019.0
20260830200558 91 221 0.0 2.0 0.00 0.00 0.00 56 1019.3
20260830200057 91 223 0.0 1.0 0.00 0.00 0.00 57 1019.4
20260830195553 91 224 0.0 2.0 0.00 0.00 0.00 58 1019.4
20260830195051 91 228 3.0 5.0 0.00 0.00 0.00 56 1019.3
20260830194551 91 239 0.0 2.0 0.00 0.00 0.00 55 1019.5
20260830194045 91 214 1.0 1.0 0.00 0.00 0.00 61 1019.4
20260830193544 91 225 1.0 3.0 0.00 0.00 0.00 58 1019.4
20260830193040 91 223 1.0 3.0 0.00 0.00 0.00 58 1019.6
20260830192535 91 207 0.0 1.0 0.00 0.00 0.00 57 1019.5
20260830192029 91 234 1.0 3.0 0.00 0.00 0.00 58 1019.7
20260830191525 90 231 0.0 2.0 0.00 0.00 0.00 60 1019.7
20260830191020 91 253 1.0 2.0 0.00 0.00 0.00 58 1019.9
20260830190515 90 228 0.0 1.0 0.00 0.00 0.00 59 1020.2
20260830190010 89 227 0.0 1.0 0.00 0.00 0.00 60 1020.3
20260830185504 90 219 0.0 2.0 0.00 0.00 0.00 61 1020.1
20260830184959 91 229 1.0 1.0 0.00 0.00 0.00 57 1020.2
20260830184458 91 203 1.0 3.0 0.00 0.00 0.00 57 1020.2
20260830183953 90 230 0.0 1.0 0.00 0.00 0.00 59 1020.3
20260830183448 90 238 0.0 0.0 0.00 0.00 0.00 60 1020.5
20260830182943 91 153 3.0 3.0 0.00 0.00 0.00 57 1020.5
20260830182438 90 262 0.0 2.0 0.00 0.00 0.00 61 1020.8
20260830181929 90 235 1.0 2.0 0.00 0.00 0.00 62 1020.7
20260830181424 90 204 0.0 2.0 0.00 0.00 0.00 62 1020.9
20260830180919 89 217 0.0 2.0 0.00 0.00 0.00 64 1020.9
20260830180419 89 213 1.0 3.0 0.00 0.00 0.00 63 1021.0
20260830175917 88 256 1.0 2.0 0.00 0.00 0.00 64 1021.0
20260830175412 89 228 1.0 2.0 0.00 0.00 0.00 65 1021.3
20260830174907 90 230 0.0 2.0 0.00 0.00 0.00 62 1021.0
20260830174402 90 224 0.0 1.0 0.00 0.00 0.00 63 1021.2
20260830173857 89 211 1.0 1.0 0.00 0.00 0.00 63 1021.3
20260830173353 89 212 1.0 1.0 0.00 0.00 0.00 65 1021.4
20260830172849 88 215 1.0 2.0 0.00 0.00 0.00 66 1021.4
20260830172345 88 238 0.0 1.0 0.00 0.00 0.00 70 1021.4
20260830171840 86 217 1.0 1.0 0.00 0.00 0.00 70 1021.5
20260830171336 87 228 0.0 1.0 0.00 0.00 0.00 69 1021.5
20260830170831 86 231 0.0 1.0 0.00 0.00 0.00 70 1021.9
20260830170330 87 220 1.0 2.0 0.00 0.00 0.00 69 1021.8
20260830165829 87 226 0.0 0.0 0.00 0.00 0.00 69 1021.8
20260830165325 86 218 1.0 2.0 0.00 0.00 0.00 72 1022.0
20260830164821 87 218 1.0 2.0 0.00 0.00 0.00 71 1022.0
20260830164316 86 234 1.0 2.0 0.00 0.00 0.00 72 1022.1
20260830163814 85 215 2.0 2.0 0.00 0.00 0.00 72 1022.0
20260830163308 84 208 2.0 2.0 0.00 0.00 0.00 75 1021.8
20260830162803 83 211 0.0 0.0 0.00 0.00 0.00 77 1022.1
20260830162300 83 224 0.0 0.0 0.00 0.00 0.00 77 1022.1
20260830161755 83 222 0.0 0.0 0.00 0.00 0.00 79 1022.3
20260830161254 84 227 0.0 0.0 0.00 0.00 0.00 76 1022.3
20260830160749 84 222 0.0 0.0 0.00 0.00 0.00 76 1022.2
20260830160249 83 205 0.0 1.0 0.00 0.00 0.00 78 1022.3
20260830155745 83 232 0.0 1.0 0.00 0.00 0.00 79 1022.2
20260830155241 83 220 0.0 1.0 0.00 0.00 0.00 78 1022.4
20260830154736 83 226 1.0 2.0 0.00 0.00 0.00 77 1022.3
20260830154232 84 244 2.0 2.0 0.00 0.00 0.00 76 1022.5
20260830153728 83 246 3.0 3.0 0.00 0.00 0.00 78 1022.5
20260830153223 82 226 0.0 1.0 0.00 0.00 0.00 80 1022.3
20260830152721 81 226 0.0 1.0 0.00 0.00 0.00 82 1022.4
20260830152216 82 201 1.0 2.0 0.00 0.00 0.00 81 1022.5
20260830151711 82 240 1.0 2.0 0.00 0.00 0.00 81 1022.7
20260830151210 81 224 0.0 1.0 0.00 0.00 0.00 82 1022.7
20260830150706 82 234 1.0 2.0 0.00 0.00 0.00 80 1022.5
20260830150205 82 222 0.0 2.0 0.00 0.00 0.00 81 1022.5
20260830145700 82 214 0.0 0.0 0.00 0.00 0.00 82 1022.4
20260830145155 81 227 0.0 0.0 0.00 0.00 0.00 83 1022.8
20260830144650 82 221 0.0 1.0 0.00 0.00 0.00 83 1022.7
20260830144146 81 218 0.0 1.0 0.00 0.00 0.00 84 1022.4
20260830143642 80 241 0.0 3.0 0.00 0.00 0.00 84 1022.5
20260830143140 80 220 0.0 1.0 0.00 0.00 0.00 85 1022.4
20260830142636 80 238 1.0 2.0 0.00 0.00 0.00 86 1022.3
20260830142135 80 226 0.0 1.0 0.00 0.00 0.00 86 1022.4
20260830141631 79 221 0.0 1.0 0.00 0.00 0.00 86 1022.4
20260830141126 80 225 0.0 2.0 0.00 0.00 0.00 86 1022.5
20260830140621 80 219 0.0 1.0 0.00 0.00 0.00 84 1022.7
20260830140121 81 227 0.0 1.0 0.00 0.00 0.00 84 1022.7
20260830135621 80 240 1.0 2.0 0.00 0.00 0.00 85 1022.3
20260830135116 78 223 1.0 2.0 0.00 0.00 0.00 87 1022.3
20260830134612 78 226 0.0 0.0 0.00 0.00 0.00 89 1022.5
20260830134108 78 223 0.0 0.0 0.00 0.00 0.00 91 1022.4
20260830133603 77 227 0.0 0.0 0.00 0.00 0.00 92 1022.2
20260830133058 77 225 0.0 0.0 0.00 0.00 0.00 92 1022.4
20260830132554 77 225 0.0 0.0 0.00 0.00 0.00 92 1022.3
20260830132049 76 234 0.0 0.0 0.00 0.00 0.00 94 1022.3
20260830131548 75 228 0.0 0.0 0.00 0.00 0.00 94 1022.3
20260830131043 75 226 0.0 0.0 0.00 0.00 0.00 95 1022.3
20260830130538 74 225 0.0 0.0 0.00 0.00 0.00 96 1022.3
20260830130033 74 223 0.0 0.0 0.00 0.00 0.00 97 1022.1
20260830125528 74 225 0.0 0.0 0.00 0.00 0.00 97 1022.1
20260830125027 73 226 0.0 0.0 0.00 0.00 0.00 98 1022.2
20260830124526 73 224 0.0 0.0 0.00 0.00 0.00 99 1022.2
20260830124022 73 224 0.0 0.0 0.00 0.00 0.00 99 1022.0
20260830123519 73 229 0.0 0.0 0.00 0.00 0.00 99 1021.9
20260830123014 72 225 0.0 0.0 0.00 0.00 0.00 99 1021.9
20260830122510 72 226 0.0 0.0 0.00 0.00 0.00 99 1022.2
20260830122006 72 225 0.0 0.0 0.00 0.00 0.00 99 1021.9
20260830121502 72 224 0.0 0.0 0.00 0.00 0.00 99 1021.9
20260830121001 72 225 0.0 0.0 0.00 0.00 0.00 99 1021.6
20260830120456 72 225 0.0 0.0 0.00 0.00 0.00 99 1021.4
20260830115953 72 225 0.0 0.0 0.00 0.00 0.00 99 1021.6
20260830115449 71 225 0.0 0.0 0.00 0.00 0.00 99 1021.6
20260830114944 71 225 0.0 0.0 0.00 0.00 0.00 99 1021.8
20260830114441 71 225 0.0 0.0 0.00 0.00 0.00 99 1021.5
20260830113940 71 226 0.0 0.0 0.00 0.00 0.00 99 1021.5
20260830113436 71 225 0.0 0.0 0.00 0.00 0.00 99 1021.5
20260830112931 71 225 0.0 0.0 0.00 0.00 0.00 99 1021.4
20260830112427 71 225 0.0 0.0 0.00 0.00 0.00 99 1021.4
20260830111923 71 225 0.0 0.0 0.00 0.00 0.00 99 1021.3
20260830111418 71 225 0.0 0.0 0.00 0.00 0.00 99 1021.1
20260830110913 71 225 0.0 0.0 0.00 0.00 0.00 99 1021.0
20260830110409 71 225 0.0 0.0 0.00 0.00 0.00 99 1021.1
20260830105908 71 225 0.0 0.0 0.00 0.00 0.00 99 1021.2
20260830105405 71 225 0.0 0.0 0.00 0.00 0.00 99 1021.0
20260830104901 71 225 0.0 0.0 0.00 0.00 0.00 99 1020.9
20260830104357 71 225 0.0 0.0 0.00 0.00 0.00 99 1021.0
20260830103856 71 225 0.0 0.0 0.00 0.00 0.00 99 1021.0
20260830103352 72 225 0.0 0.0 0.00 0.00 0.00 99 1021.0
20260830102850 72 227 0.0 0.0 0.00 0.00 0.00 99 1020.9
20260830102346 72 226 0.0 0.0 0.00 0.00 0.00 99 1020.9